User: anonymous   Login
Location: Unspecified
(0.0000°N, 0.0000°E)
Time: 03:32:59
(UTC+00:00)
Language:

ARGOS - Orbit

View from above orbital plane
View from above orbital plane
View from above satellite
View from above satellite

Ground track
Ground track

The orbit data is extracted from the following two-line orbital elements,

1 25634U 99008A   17112.78650874 +.00000002 +00000-0 +21305-4 0  9990
2 25634 098.6241 177.0581 0010351 014.5879 345.5594 14.19309205940131
Epoch (UTC): 22 April 2017 18:52:34
Eccentricity: 0.0010351
inclination: 98.6241°
perigee height: 820 km
apogee height: 835 km
right ascension of ascending node: 177.0581°
argument of perigee: 14.5879°
revolutions per day: 14.19309205
mean anomaly at epoch: 345.5594°
orbit number at epoch: 94013

The dashed part of the orbit path shows where the satellite is in the earth's shadow,  

DLR